Location: Roanoke
(37.2710°N, 79.9420°W)
Time: 04:50:18
(UTC-05:00)

Transit 2A - Pass Details

Date: 24 November 2019
Orbit: 602 x 957 km, 66.7° (Epoch: 08 December)

Event Time Altitude Azimuth Distance (km) Brightness Sun altitude
Rises 10:42:05 0° 203° (SSW) 3,254 9.9 28.8°
Reaches altitude 10° 10:44:36 10° 202° (SSW) 2,271 9.2 29.0°
Maximum altitude 10:49:44 80° 117° (ESE) 714 6.5 29.4°
Drops below altitude 10° 10:54:25 10° 30° (NNE) 2,074 8.0 29.7°
Sets 10:56:37 0° 29° (NNE) 2,949 8.7 29.9°
